TAM3853 SBTE-SBBR

Flight info

Callsign TAM3853
Flight time 1h 56m
Altitude 38000
Route GUEST DCT KADAG DCT TOLAT
Aircraft A320/M-SDE3FGHIRWY/LB1

Departure

Time 2026-05-05 17:31
Airport Senador Petrônio Portela Airport (SBTE)

Arrival

Time 2026-05-05 19:28
Airport Presidente Juscelino Kubitschek International Airport (SBBR)
Time Latitude Longitude Altitude Speed Heading
2026-05-05 17:17 -5.06609 -42.82083 220 ft 0 kts 86°
2026-05-05 17:24 -5.06610 -42.82086 219 ft 3 kts 86°
2026-05-05 17:24 -5.06613 -42.82112 223 ft 4 kts 72°
2026-05-05 17:24 -5.06625 -42.82136 221 ft 4 kts 48°
2026-05-05 17:24 -5.06645 -42.82151 219 ft 4 kts 10°
2026-05-05 17:25 -5.06658 -42.82152 219 ft 0 kts 354°
2026-05-05 17:26 -5.06617 -42.82156 220 ft 11 kts 354°
2026-05-05 17:27 -5.06547 -42.82169 222 ft 10 kts 327°
2026-05-05 17:27 -5.06499 -42.82199 221 ft 8 kts 352°
2026-05-05 17:27 -5.06450 -42.82203 223 ft 7 kts 355°
2026-05-05 17:27 -5.06406 -42.82207 219 ft 6 kts 353°
2026-05-05 17:28 -5.06368 -42.82253 219 ft 10 kts 272°
2026-05-05 17:28 -5.06353 -42.82321 220 ft 16 kts 309°
2026-05-05 17:28 -5.06214 -42.82352 220 ft 22 kts 355°
2026-05-05 17:28 -5.06070 -42.82364 223 ft 21 kts 354°
2026-05-05 17:29 -5.05873 -42.82386 219 ft 37 kts 354°
2026-05-05 17:29 -5.05607 -42.82412 217 ft 39 kts 354°
2026-05-05 17:29 -5.05340 -42.82439 219 ft 36 kts 353°
2026-05-05 17:29 -5.05135 -42.82462 221 ft 19 kts 353°
2026-05-05 17:30 -5.05042 -42.82453 218 ft 11 kts 314°
2026-05-05 17:30 -5.05080 -42.82472 224 ft 9 kts 175°
2026-05-05 17:30 -5.05291 -42.82448 224 ft 66 kts 174°
2026-05-05 17:30 -5.05991 -42.82372 222 ft 133 kts 173°
2026-05-05 17:31 -5.07026 -42.82273 641 ft 153 kts 172°
2026-05-05 17:31 -5.08095 -42.82169 1406 ft 155 kts 172°
2026-05-05 17:31 -5.09185 -42.82063 1916 ft 165 kts 172°
2026-05-05 17:31 -5.10404 -42.81943 2236 ft 187 kts 172°
2026-05-05 17:32 -5.11781 -42.81804 2516 ft 211 kts 172°
2026-05-05 17:32 -5.13326 -42.81653 2896 ft 235 kts 174°
2026-05-05 17:32 -5.15013 -42.81931 3373 ft 260 kts 200°
2026-05-05 17:32 -5.16626 -42.82761 4172 ft 267 kts 207°
2026-05-05 17:33 -5.18225 -42.83738 5061 ft 271 kts 209°
2026-05-05 17:33 -5.19838 -42.84746 5980 ft 274 kts 209°
2026-05-05 17:33 -5.21480 -42.85744 6844 ft 277 kts 208°
2026-05-05 17:33 -5.23157 -42.86723 7629 ft 282 kts 207°
2026-05-05 17:34 -5.24888 -42.87700 8378 ft 288 kts 206°
2026-05-05 17:34 -5.26661 -42.88679 9122 ft 294 kts 206°
2026-05-05 17:34 -5.28475 -42.89672 9853 ft 300 kts 205°
2026-05-05 17:34 -5.30352 -42.90691 10277 ft 317 kts 205°
2026-05-05 17:35 -5.32367 -42.91778 10499 ft 340 kts 206°
2026-05-05 17:35 -5.34465 -42.92912 10995 ft 350 kts 206°
2026-05-05 17:35 -5.36626 -42.94086 11667 ft 355 kts 206°
2026-05-05 17:35 -5.38812 -42.95277 12344 ft 359 kts 206°
2026-05-05 17:36 -5.41020 -42.96481 13017 ft 363 kts 206°
2026-05-05 17:36 -5.43245 -42.97697 13701 ft 366 kts 206°
2026-05-05 17:36 -5.45500 -42.98922 14290 ft 369 kts 206°
2026-05-05 17:36 -5.47774 -43.00155 14876 ft 373 kts 206°
2026-05-05 17:37 -5.50064 -43.01401 15471 ft 376 kts 207°
2026-05-05 17:37 -5.52379 -43.02661 16070 ft 379 kts 206°
2026-05-05 17:37 -5.54705 -43.03926 16637 ft 382 kts 206°
2026-05-05 17:37 -5.57032 -43.05189 17193 ft 386 kts 206°
2026-05-05 17:38 -5.59406 -43.06477 17762 ft 389 kts 207°
2026-05-05 17:38 -5.61788 -43.07770 18302 ft 391 kts 206°
2026-05-05 17:38 -5.64194 -43.09075 18770 ft 394 kts 206°
2026-05-05 17:38 -5.66620 -43.10394 19243 ft 397 kts 207°
2026-05-05 17:39 -5.69043 -43.11745 19724 ft 400 kts 208°
2026-05-05 17:39 -5.71452 -43.13159 20197 ft 402 kts 210°
2026-05-05 17:39 -5.73856 -43.14612 20661 ft 405 kts 210°
2026-05-05 17:39 -5.76277 -43.16091 21109 ft 407 kts 210°
2026-05-05 17:40 -5.78673 -43.17553 21556 ft 410 kts 210°
2026-05-05 17:40 -5.81155 -43.19058 22013 ft 412 kts 210°
2026-05-05 17:40 -5.83592 -43.20525 22448 ft 415 kts 210°
2026-05-05 17:40 -5.86082 -43.22016 22882 ft 417 kts 210°
2026-05-05 17:41 -5.88583 -43.23506 23296 ft 420 kts 210°
2026-05-05 17:41 -5.91106 -43.25007 23681 ft 422 kts 210°
2026-05-05 17:41 -5.93643 -43.26519 24048 ft 423 kts 210°
2026-05-05 17:41 -5.96146 -43.28012 24428 ft 424 kts 210°
2026-05-05 17:42 -5.98689 -43.29533 24838 ft 424 kts 210°
2026-05-05 17:42 -6.01223 -43.31052 25246 ft 424 kts 210°
2026-05-05 17:42 -6.03766 -43.32579 25618 ft 426 kts 210°
2026-05-05 17:42 -6.06311 -43.34108 26015 ft 425 kts 210°
2026-05-05 17:43 -6.08856 -43.35634 26387 ft 426 kts 210°
2026-05-05 17:43 -6.11409 -43.37161 26720 ft 428 kts 210°
2026-05-05 17:43 -6.13945 -43.38677 27068 ft 429 kts 210°
2026-05-05 17:43 -6.16517 -43.40214 27404 ft 430 kts 210°
2026-05-05 17:44 -6.19097 -43.41758 27729 ft 432 kts 210°
2026-05-05 17:44 -6.21687 -43.43309 28055 ft 434 kts 210°
2026-05-05 17:44 -6.24279 -43.44864 28398 ft 435 kts 210°
2026-05-05 17:44 -6.26884 -43.46427 28737 ft 436 kts 210°
2026-05-05 17:45 -6.29495 -43.47992 29066 ft 437 kts 210°
2026-05-05 17:45 -6.32111 -43.49560 29392 ft 438 kts 210°
2026-05-05 17:45 -6.34739 -43.51133 29695 ft 439 kts 210°
2026-05-05 17:45 -6.37373 -43.52709 30018 ft 440 kts 210°
2026-05-05 17:46 -6.40006 -43.54288 30284 ft 440 kts 210°
2026-05-05 17:46 -6.42637 -43.55868 30534 ft 442 kts 210°
2026-05-05 17:46 -6.45277 -43.57455 30769 ft 443 kts 210°
2026-05-05 17:46 -6.47896 -43.59029 31007 ft 444 kts 210°
2026-05-05 17:47 -6.50564 -43.60630 31240 ft 445 kts 210°
2026-05-05 17:47 -6.53227 -43.62229 31562 ft 444 kts 210°
2026-05-05 17:47 -6.55877 -43.63821 31901 ft 443 kts 210°
2026-05-05 17:47 -6.58524 -43.65411 32241 ft 442 kts 210°
2026-05-05 17:48 -6.61158 -43.66991 32591 ft 441 kts 210°
2026-05-05 17:48 -6.63788 -43.68567 32977 ft 439 kts 210°
2026-05-05 17:48 -6.66406 -43.70139 33352 ft 437 kts 210°
2026-05-05 17:48 -6.69016 -43.71708 33717 ft 436 kts 210°
2026-05-05 17:49 -6.71616 -43.73268 34056 ft 435 kts 210°
2026-05-05 17:49 -6.74181 -43.74806 34338 ft 434 kts 210°
2026-05-05 17:49 -6.76784 -43.76367 34604 ft 435 kts 210°
2026-05-05 17:49 -6.79386 -43.77924 34854 ft 435 kts 210°
2026-05-05 17:50 -6.81991 -43.79485 35101 ft 435 kts 210°
2026-05-05 17:50 -6.84594 -43.81048 35333 ft 436 kts 211°
2026-05-05 17:50 -6.87198 -43.82619 35580 ft 436 kts 211°
2026-05-05 17:50 -6.89801 -43.84188 35818 ft 436 kts 211°
2026-05-05 17:51 -6.92407 -43.85753 36044 ft 436 kts 211°
2026-05-05 17:51 -6.95017 -43.87319 36263 ft 437 kts 211°
2026-05-05 17:51 -6.97630 -43.88889 36479 ft 437 kts 211°
2026-05-05 17:51 -7.00207 -43.90439 36691 ft 437 kts 211°
2026-05-05 17:52 -7.02824 -43.92015 36911 ft 438 kts 211°
2026-05-05 17:52 -7.05435 -43.93585 37138 ft 437 kts 211°
2026-05-05 17:52 -7.08049 -43.95157 37346 ft 437 kts 212°
2026-05-05 17:52 -7.10665 -43.96728 37564 ft 438 kts 212°
2026-05-05 17:53 -7.13283 -43.98304 37767 ft 437 kts 212°
2026-05-05 17:53 -7.15902 -43.99881 37908 ft 438 kts 212°
2026-05-05 17:53 -7.18487 -44.01439 37945 ft 438 kts 212°
2026-05-05 17:54 -7.23712 -44.04585 37931 ft 437 kts 212°
2026-05-05 17:54 -7.28939 -44.07733 37933 ft 438 kts 212°
2026-05-05 17:55 -7.34170 -44.10881 37933 ft 437 kts 212°
2026-05-05 17:55 -7.39398 -44.14023 37946 ft 437 kts 212°
2026-05-05 17:56 -7.44583 -44.17156 37954 ft 437 kts 212°
2026-05-05 17:56 -7.49799 -44.20310 37955 ft 437 kts 212°
2026-05-05 17:57 -7.55015 -44.23460 37955 ft 437 kts 212°
2026-05-05 17:57 -7.60247 -44.26614 37951 ft 437 kts 212°
2026-05-05 17:58 -7.65484 -44.29769 37958 ft 438 kts 212°
2026-05-05 17:58 -7.70679 -44.32913 37947 ft 437 kts 212°
2026-05-05 17:59 -7.75900 -44.36061 37948 ft 437 kts 212°
2026-05-05 17:59 -7.81127 -44.39205 37945 ft 437 kts 212°
2026-05-05 18:00 -7.86354 -44.42363 37950 ft 437 kts 212°
2026-05-05 18:00 -7.91575 -44.45514 37963 ft 437 kts 212°
2026-05-05 18:01 -7.96763 -44.48651 37962 ft 437 kts 212°
2026-05-05 18:01 -8.01993 -44.51816 37961 ft 437 kts 212°
2026-05-05 18:02 -8.06335 -44.54444 37960 ft 437 kts 212°
2026-05-05 18:02 -8.12407 -44.58120 37959 ft 437 kts 212°
2026-05-05 18:03 -8.17625 -44.61279 37966 ft 437 kts 212°
2026-05-05 18:03 -8.21961 -44.63902 37972 ft 436 kts 212°
2026-05-05 18:04 -8.27171 -44.67050 37962 ft 436 kts 212°
2026-05-05 18:04 -8.32387 -44.70211 37965 ft 436 kts 212°
2026-05-05 18:05 -8.37572 -44.73347 37957 ft 436 kts 212°
2026-05-05 18:05 -8.42774 -44.76503 37964 ft 436 kts 212°
2026-05-05 18:06 -8.47978 -44.79659 37959 ft 436 kts 212°
2026-05-05 18:06 -8.53152 -44.82804 37966 ft 436 kts 212°
2026-05-05 18:07 -8.58355 -44.85966 37963 ft 436 kts 212°
2026-05-05 18:07 -8.63548 -44.89119 37979 ft 436 kts 213°
2026-05-05 18:08 -8.68759 -44.92272 37979 ft 435 kts 212°
2026-05-05 18:08 -8.73946 -44.95419 37980 ft 434 kts 213°
2026-05-05 18:09 -8.79127 -44.98572 37967 ft 434 kts 213°
2026-05-05 18:09 -8.84272 -45.01704 37968 ft 434 kts 213°
2026-05-05 18:10 -8.89442 -45.04850 37978 ft 433 kts 213°
2026-05-05 18:10 -8.94609 -45.07982 37977 ft 432 kts 213°
2026-05-05 18:11 -8.99762 -45.11111 37983 ft 432 kts 213°
2026-05-05 18:11 -9.04913 -45.14247 37984 ft 432 kts 213°
2026-05-05 18:12 -9.10031 -45.17365 37984 ft 432 kts 213°
2026-05-05 18:12 -9.15181 -45.20505 37994 ft 432 kts 213°
2026-05-05 18:13 -9.20329 -45.23634 37990 ft 431 kts 213°
2026-05-05 18:13 -9.25471 -45.26761 37994 ft 431 kts 213°
2026-05-05 18:14 -9.30617 -45.29896 37991 ft 431 kts 213°
2026-05-05 18:14 -9.35747 -45.33025 37988 ft 431 kts 213°
2026-05-05 18:15 -9.40848 -45.36137 37987 ft 430 kts 213°
2026-05-05 18:15 -9.45978 -45.39273 37991 ft 430 kts 213°
2026-05-05 18:16 -9.51101 -45.42400 37994 ft 430 kts 213°
2026-05-05 18:16 -9.56227 -45.45531 37993 ft 429 kts 213°
2026-05-05 18:17 -9.61338 -45.48649 37992 ft 429 kts 213°
2026-05-05 18:17 -9.66429 -45.51755 37993 ft 429 kts 213°
2026-05-05 18:18 -9.71541 -45.54880 37989 ft 429 kts 213°
2026-05-05 18:18 -9.76653 -45.58008 37991 ft 428 kts 213°
2026-05-05 18:19 -9.81723 -45.61111 37994 ft 428 kts 213°
2026-05-05 18:19 -9.86823 -45.64225 37990 ft 428 kts 213°
2026-05-05 18:20 -9.91917 -45.67351 37990 ft 427 kts 213°
2026-05-05 18:20 -9.97010 -45.70473 37996 ft 427 kts 213°
2026-05-05 18:21 -10.02105 -45.73591 38001 ft 427 kts 213°
2026-05-05 18:21 -10.07200 -45.76708 37996 ft 427 kts 213°
2026-05-05 18:22 -10.12252 -45.79809 37998 ft 427 kts 213°
2026-05-05 18:22 -10.17338 -45.82933 38000 ft 427 kts 213°
2026-05-05 18:23 -10.22426 -45.86055 38006 ft 427 kts 213°
2026-05-05 18:23 -10.27514 -45.89184 38005 ft 427 kts 213°
2026-05-05 18:24 -10.32578 -45.92291 38015 ft 427 kts 213°
2026-05-05 18:24 -10.37668 -45.95411 38013 ft 427 kts 213°
2026-05-05 18:25 -10.42750 -45.98537 38007 ft 427 kts 213°
2026-05-05 18:25 -10.47845 -46.01663 38010 ft 427 kts 213°
2026-05-05 18:26 -10.52928 -46.04788 38010 ft 427 kts 213°
2026-05-05 18:26 -10.57986 -46.07897 38010 ft 427 kts 213°
2026-05-05 18:27 -10.63076 -46.11028 38016 ft 427 kts 213°
2026-05-05 18:27 -10.68157 -46.14156 38017 ft 426 kts 213°
2026-05-05 18:28 -10.75768 -46.18841 38018 ft 426 kts 213°
2026-05-05 18:28 -10.80838 -46.21966 38021 ft 426 kts 213°
2026-05-05 18:29 -10.85911 -46.25092 38017 ft 426 kts 213°
2026-05-05 18:29 -10.90946 -46.28191 38020 ft 426 kts 213°
2026-05-05 18:30 -10.96004 -46.31311 38024 ft 425 kts 213°
2026-05-05 18:30 -11.01059 -46.34434 38022 ft 424 kts 213°
2026-05-05 18:31 -11.06102 -46.37552 38017 ft 424 kts 213°
2026-05-05 18:31 -11.11149 -46.40671 38017 ft 424 kts 213°
2026-05-05 18:32 -11.16190 -46.43784 38022 ft 424 kts 213°
2026-05-05 18:32 -11.21202 -46.46881 38020 ft 423 kts 213°
2026-05-05 18:33 -11.26248 -46.49998 38021 ft 424 kts 213°
2026-05-05 18:33 -11.31289 -46.53119 38023 ft 423 kts 213°
2026-05-05 18:34 -11.36330 -46.56241 38022 ft 423 kts 213°
2026-05-05 18:34 -11.41334 -46.59341 38019 ft 424 kts 213°
2026-05-05 18:35 -11.46371 -46.62463 38017 ft 423 kts 213°
2026-05-05 18:35 -11.51409 -46.65584 38016 ft 423 kts 213°
2026-05-05 18:36 -11.56439 -46.68704 38021 ft 423 kts 213°
2026-05-05 18:36 -11.61466 -46.71819 38021 ft 422 kts 213°
2026-05-05 18:37 -11.66477 -46.74931 38013 ft 421 kts 213°
2026-05-05 18:37 -11.71449 -46.78020 38011 ft 421 kts 213°
2026-05-05 18:38 -11.76457 -46.81125 38009 ft 420 kts 213°
2026-05-05 18:38 -11.81455 -46.84232 38015 ft 420 kts 213°
2026-05-05 18:39 -11.86446 -46.87337 38016 ft 419 kts 213°
2026-05-05 18:39 -11.91414 -46.90436 38016 ft 418 kts 213°
2026-05-05 18:40 -11.96305 -46.93624 38011 ft 417 kts 216°
2026-05-05 18:40 -12.01054 -46.97017 38011 ft 416 kts 217°
2026-05-05 18:41 -12.05738 -47.00417 38007 ft 416 kts 216°
2026-05-05 18:41 -12.10492 -47.03804 38005 ft 416 kts 216°
2026-05-05 18:42 -12.15261 -47.07162 38010 ft 415 kts 216°
2026-05-05 18:42 -12.20020 -47.10514 38010 ft 415 kts 216°
2026-05-05 18:43 -12.24732 -47.13849 38008 ft 414 kts 216°
2026-05-05 18:43 -12.29462 -47.17207 38007 ft 414 kts 216°
2026-05-05 18:44 -12.34191 -47.20562 38008 ft 413 kts 216°
2026-05-05 18:44 -12.38922 -47.23912 38006 ft 413 kts 216°
2026-05-05 18:45 -12.43650 -47.27266 38015 ft 413 kts 216°
2026-05-05 18:45 -12.48374 -47.30622 38015 ft 413 kts 216°
2026-05-05 18:46 -12.53091 -47.33978 38014 ft 412 kts 216°
2026-05-05 18:46 -12.57774 -47.37301 38012 ft 412 kts 216°
2026-05-05 18:47 -12.62492 -47.40656 38011 ft 412 kts 216°
2026-05-05 18:47 -12.67204 -47.44004 38011 ft 412 kts 216°
2026-05-05 18:48 -12.71914 -47.47353 38010 ft 412 kts 216°
2026-05-05 18:48 -12.76617 -47.50707 38026 ft 412 kts 216°
2026-05-05 18:49 -12.81294 -47.54036 38017 ft 411 kts 216°
2026-05-05 18:49 -12.85994 -47.57381 38022 ft 411 kts 216°
2026-05-05 18:50 -12.90691 -47.60728 38019 ft 411 kts 216°
2026-05-05 18:50 -12.95387 -47.64076 38022 ft 411 kts 216°
2026-05-05 18:51 -12.99288 -47.66864 38029 ft 411 kts 216°
2026-05-05 18:51 -13.03978 -47.70214 38032 ft 411 kts 216°
2026-05-05 18:52 -13.08669 -47.73567 38041 ft 410 kts 216°
2026-05-05 18:52 -13.13316 -47.76887 38049 ft 409 kts 216°
2026-05-05 18:53 -13.17988 -47.80223 38048 ft 409 kts 216°
2026-05-05 18:53 -13.22660 -47.83560 38042 ft 408 kts 216°
2026-05-05 18:54 -13.27324 -47.86895 38045 ft 408 kts 216°
2026-05-05 18:54 -13.31986 -47.90240 38040 ft 408 kts 216°
2026-05-05 18:55 -13.36644 -47.93579 38053 ft 408 kts 216°
2026-05-05 18:55 -13.41307 -47.96911 38054 ft 408 kts 216°
2026-05-05 18:56 -13.45959 -48.00244 38047 ft 408 kts 216°
2026-05-05 18:56 -13.50591 -48.03561 38041 ft 408 kts 216°
2026-05-05 18:57 -13.55247 -48.06899 38049 ft 408 kts 216°
2026-05-05 18:57 -13.59904 -48.10245 38043 ft 408 kts 216°
2026-05-05 18:58 -13.64557 -48.13591 38039 ft 408 kts 216°
2026-05-05 18:58 -13.69215 -48.16935 38046 ft 408 kts 216°
2026-05-05 18:59 -13.73844 -48.20258 38050 ft 408 kts 216°
2026-05-05 18:59 -13.78492 -48.23607 38046 ft 407 kts 216°
2026-05-05 19:00 -13.83133 -48.26953 38050 ft 407 kts 216°
2026-05-05 19:00 -13.87782 -48.30299 38046 ft 407 kts 216°
2026-05-05 19:01 -13.92430 -48.33645 38052 ft 407 kts 216°
2026-05-05 19:01 -13.97051 -48.36973 38049 ft 407 kts 216°
2026-05-05 19:02 -14.01703 -48.40325 38058 ft 407 kts 216°
2026-05-05 19:02 -14.06342 -48.43673 38060 ft 407 kts 216°
2026-05-05 19:03 -14.10982 -48.47023 38056 ft 407 kts 216°
2026-05-05 19:03 -14.15743 -48.50163 38050 ft 408 kts 206°
2026-05-05 19:04 -14.21261 -48.51663 38045 ft 414 kts 191°
2026-05-05 19:04 -14.26985 -48.52411 37989 ft 415 kts 191°
2026-05-05 19:05 -14.29844 -48.52786 37078 ft 422 kts 191°
2026-05-05 19:05 -14.32786 -48.53177 36089 ft 429 kts 190°
2026-05-05 19:05 -14.35762 -48.53571 35223 ft 432 kts 190°
2026-05-05 19:05 -14.38732 -48.53964 33995 ft 430 kts 189°
2026-05-05 19:06 -14.41698 -48.54358 32955 ft 424 kts 189°
2026-05-05 19:06 -14.44549 -48.54732 32594 ft 403 kts 189°
2026-05-05 19:06 -14.47282 -48.55089 32066 ft 388 kts 189°
2026-05-05 19:06 -14.49945 -48.55442 31546 ft 385 kts 189°
2026-05-05 19:07 -14.52599 -48.55793 31034 ft 382 kts 189°
2026-05-05 19:07 -14.55229 -48.56141 30528 ft 380 kts 189°
2026-05-05 19:07 -14.57853 -48.56490 30023 ft 379 kts 189°
2026-05-05 19:07 -14.60463 -48.56838 29467 ft 376 kts 189°
2026-05-05 19:08 -14.63045 -48.57182 28977 ft 373 kts 189°
2026-05-05 19:08 -14.65606 -48.57520 28491 ft 369 kts 189°
2026-05-05 19:08 -14.68113 -48.57850 28022 ft 366 kts 188°
2026-05-05 19:08 -14.70636 -48.58184 27545 ft 363 kts 188°
2026-05-05 19:09 -14.73133 -48.58519 27086 ft 360 kts 188°
2026-05-05 19:09 -14.75612 -48.58849 26636 ft 358 kts 188°
2026-05-05 19:09 -14.78085 -48.59177 26190 ft 357 kts 188°
2026-05-05 19:09 -14.80541 -48.59503 25764 ft 355 kts 188°
2026-05-05 19:10 -14.82985 -48.59827 25339 ft 354 kts 188°
2026-05-05 19:10 -14.85430 -48.60152 24916 ft 352 kts 188°
2026-05-05 19:10 -14.87858 -48.60476 24495 ft 351 kts 188°
2026-05-05 19:10 -14.90281 -48.60797 24075 ft 350 kts 187°
2026-05-05 19:11 -14.92690 -48.61118 23650 ft 349 kts 187°
2026-05-05 19:11 -14.95066 -48.61435 23171 ft 348 kts 187°
2026-05-05 19:11 -14.97461 -48.61756 22728 ft 346 kts 187°
2026-05-05 19:11 -14.99844 -48.62035 22291 ft 344 kts 182°
2026-05-05 19:12 -15.02225 -48.61905 21820 ft 343 kts 171°
2026-05-05 19:12 -15.04528 -48.61270 21358 ft 343 kts 160°
2026-05-05 19:12 -15.06683 -48.60216 20882 ft 343 kts 154°
2026-05-05 19:12 -15.08816 -48.59103 20411 ft 343 kts 154°
2026-05-05 19:13 -15.10950 -48.57998 19944 ft 343 kts 154°
2026-05-05 19:13 -15.13086 -48.56893 19472 ft 343 kts 154°
2026-05-05 19:13 -15.15222 -48.55788 19004 ft 343 kts 155°
2026-05-05 19:13 -15.17370 -48.54677 18539 ft 344 kts 155°
2026-05-05 19:14 -15.19486 -48.53584 18043 ft 344 kts 155°
2026-05-05 19:14 -15.21620 -48.52480 17566 ft 342 kts 154°
2026-05-05 19:14 -15.23745 -48.51378 17109 ft 340 kts 154°
2026-05-05 19:14 -15.25861 -48.50281 16661 ft 339 kts 154°
2026-05-05 19:15 -15.27966 -48.49188 16213 ft 337 kts 154°
2026-05-05 19:15 -15.30060 -48.48098 15785 ft 336 kts 153°
2026-05-05 19:15 -15.32145 -48.47013 15333 ft 335 kts 153°
2026-05-05 19:15 -15.34230 -48.45927 14898 ft 335 kts 153°
2026-05-05 19:16 -15.36316 -48.44841 14457 ft 335 kts 152°
2026-05-05 19:16 -15.38402 -48.43757 14010 ft 335 kts 152°
2026-05-05 19:16 -15.40488 -48.42674 13529 ft 335 kts 152°
2026-05-05 19:16 -15.42568 -48.41592 13070 ft 334 kts 152°
2026-05-05 19:17 -15.44642 -48.40510 12611 ft 333 kts 152°
2026-05-05 19:17 -15.46709 -48.39432 12158 ft 332 kts 152°
2026-05-05 19:17 -15.48766 -48.38360 11702 ft 330 kts 151°
2026-05-05 19:17 -15.50817 -48.37292 11261 ft 329 kts 151°
2026-05-05 19:18 -15.52838 -48.36239 10809 ft 329 kts 150°
2026-05-05 19:18 -15.54884 -48.35174 10352 ft 329 kts 151°
2026-05-05 19:18 -15.56903 -48.34126 10206 ft 317 kts 151°
2026-05-05 19:18 -15.58840 -48.33124 10095 ft 305 kts 151°
2026-05-05 19:19 -15.60712 -48.32157 9924 ft 296 kts 151°
2026-05-05 19:19 -15.62544 -48.31216 9638 ft 291 kts 151°
2026-05-05 19:19 -15.64353 -48.30286 9397 ft 289 kts 151°
2026-05-05 19:19 -15.66145 -48.29362 9154 ft 286 kts 152°
2026-05-05 19:20 -15.67924 -48.28445 8924 ft 285 kts 151°
2026-05-05 19:20 -15.69706 -48.27527 8686 ft 285 kts 151°
2026-05-05 19:20 -15.71459 -48.26625 8447 ft 284 kts 150°
2026-05-05 19:20 -15.73223 -48.25718 8215 ft 282 kts 150°
2026-05-05 19:21 -15.74976 -48.24813 7987 ft 281 kts 150°
2026-05-05 19:21 -15.76724 -48.23909 7614 ft 282 kts 151°
2026-05-05 19:21 -15.78445 -48.22960 7291 ft 277 kts 143°
2026-05-05 19:21 -15.79865 -48.21670 7059 ft 267 kts 130°
2026-05-05 19:22 -15.81111 -48.20272 6845 ft 260 kts 130°
2026-05-05 19:22 -15.82323 -48.18916 6631 ft 253 kts 131°
2026-05-05 19:22 -15.83508 -48.17591 6426 ft 248 kts 131°
2026-05-05 19:22 -15.84671 -48.16289 6223 ft 244 kts 131°
2026-05-05 19:23 -15.85826 -48.14995 6018 ft 245 kts 131°
2026-05-05 19:23 -15.86983 -48.13699 5827 ft 244 kts 130°
2026-05-05 19:23 -15.88134 -48.12412 5620 ft 241 kts 130°
2026-05-05 19:23 -15.88965 -48.10945 5502 ft 236 kts 104°
2026-05-05 19:24 -15.89052 -48.09248 5464 ft 238 kts 87°
2026-05-05 19:24 -15.88938 -48.07587 5474 ft 226 kts 86°
2026-05-05 19:24 -15.88834 -48.06025 5473 ft 206 kts 87°
2026-05-05 19:24 -15.88742 -48.04600 5437 ft 192 kts 87°
2026-05-05 19:25 -15.88654 -48.03238 5290 ft 179 kts 87°
2026-05-05 19:25 -15.88575 -48.02019 5141 ft 157 kts 87°
2026-05-05 19:25 -15.88508 -48.00952 4913 ft 143 kts 87°
2026-05-05 19:25 -15.88443 -47.99931 4695 ft 141 kts 87°
2026-05-05 19:26 -15.88379 -47.98930 4525 ft 138 kts 86°
2026-05-05 19:26 -15.88319 -47.97936 4339 ft 137 kts 88°
2026-05-05 19:26 -15.88254 -47.96942 4145 ft 138 kts 88°
2026-05-05 19:26 -15.88191 -47.95949 3962 ft 138 kts 86°
2026-05-05 19:27 -15.88127 -47.94961 3745 ft 136 kts 90°
2026-05-05 19:27 -15.88064 -47.93973 3531 ft 137 kts 90°
2026-05-05 19:27 -15.87993 -47.93058 3479 ft 114 kts 96°
2026-05-05 19:27 -15.87968 -47.92358 3474 ft 75 kts 85°
2026-05-05 19:28 -15.87939 -47.91995 3470 ft 34 kts 83°
2026-05-05 19:28 -15.87869 -47.91793 3467 ft 30 kts 60°
2026-05-05 19:28 -15.87784 -47.91659 3469 ft 7 kts 56°
2026-05-05 19:28 -15.87780 -47.91653 3468 ft 3 kts 56°
2026-05-05 19:29 -15.87728 -47.91574 3469 ft 16 kts 53°
2026-05-05 19:29 -15.87634 -47.91552 3469 ft 12 kts 355°
2026-05-05 19:29 -15.87559 -47.91558 3463 ft 13 kts 357°
2026-05-05 19:29 -15.87458 -47.91565 3462 ft 19 kts 356°
2026-05-05 19:30 -15.87331 -47.91574 3464 ft 14 kts 349°
2026-05-05 19:30 -15.87307 -47.91649 3464 ft 10 kts 288°
2026-05-05 19:30 -15.87235 -47.91674 3465 ft 16 kts 357°
2026-05-05 19:30 -15.87127 -47.91681 3465 ft 15 kts 356°
2026-05-05 19:31 -15.87061 -47.91730 3465 ft 12 kts 276°
2026-05-05 19:31 -15.87065 -47.91813 3465 ft 11 kts 266°
2026-05-05 19:31 -15.87055 -47.91882 3464 ft 9 kts 309°
2026-05-05 19:31 -15.87046 -47.91936 3465 ft 7 kts 258°
2026-05-05 19:32 -15.87056 -47.91983 3463 ft 3 kts 256°
2026-05-05 19:32 -15.87059 -47.91997 3463 ft 1 kts 257°
2026-05-05 19:32 -15.87060 -47.92000 3464 ft 0 kts 257°